Location: Chiroubles
(46.1812°N, 4.6660°E)
Time: 19:19:58
(UTC+00:00)

IGS 5A - Pass Details

Date: 15 August 2020
Orbit: 583 x 588 km, 97.6° (Epoch: 21 September)

Event Time Altitude Azimuth Distance (km) Brightness Sun altitude
Exits shadow 20:29:50 28° 147° (SSE) 1,120 4.3 -15.7°
Maximum altitude 20:31:54 64° 74° (ENE) 658 3.5 -16.0°
Drops below altitude 10° 20:36:02 10° 353° (N) 1,926 6.8 -16.5°
Sets 20:38:13 0° 351° (N) 2,831 7.8 -16.8°
